FW1793 Weather Reports


time (UTC)temp
F
wind
direction
speed
knots
gust
knots
rain 1hr
in
rain 24hr
in
rain mn
in
humidity
%
barometer
mb
20260510130530 50 317 4.3 8.7 0.00 0.02 0.00 58 1013.3
20260510125523 50 256 7.0 13.0 0.00 0.02 0.00 60 1013.1
20260510124517 49 252 7.8 13.9 0.00 0.02 0.00 61 1013.0
20260510123525 49 305 6.1 10.4 0.00 0.02 0.00 62 1013.0
20260510122518 49 257 5.2 9.6 0.00 0.02 0.00 63 1013.0
20260510121528 48 266 7.8 13.0 0.00 0.02 0.00 63 1012.8
20260510120522 47 267 7.8 11.3 0.00 0.02 0.00 64 1012.7
20260510115516 47 250 4.3 7.8 0.00 0.02 0.00 66 1012.6
20260510114527 46 268 7.8 12.2 0.00 0.02 0.00 66 1012.5
20260510113522 47 238 4.3 7.8 0.00 0.02 0.00 67 1012.2
20260510112519 47 236 5.2 7.8 0.00 0.02 0.00 66 1012.1
20260510111528 46 239 2.6 5.2 0.00 0.02 0.00 67 1011.8
20260510110525 45 231 2.6 5.2 0.00 0.02 0.00 71 1011.7
20260510105519 44 253 4.3 7.8 0.00 0.02 0.00 75 1011.5
20260510104529 43 254 2.6 7.0 0.00 0.02 0.00 76 1011.3
20260510103523 42 284 2.6 5.2 0.00 0.02 0.00 77 1011.0
20260510102519 42 261 3.5 7.0 0.00 0.02 0.00 76 1010.9
20260510101528 41 219 3.5 6.1 0.00 0.02 0.00 74 1010.7
20260510100524 42 192 0.9 1.7 0.00 0.02 0.00 74 1010.5
20260510095518 42 198 1.7 3.5 0.00 0.02 0.00 73 1010.3
20260510094548 42 290 3.5 7.0 0.00 0.02 0.00 72 1010.1
20260510093521 42 274 4.3 7.0 0.00 0.02 0.00 71 1010.0
20260510092529 42 213 0.9 3.5 0.00 0.02 0.00 70 1009.9
20260510091523 43 249 0.9 2.6 0.00 0.02 0.00 69 1009.8
20260510090559 44 299 2.6 6.1 0.00 0.02 0.00 68 1009.6
20260510085527 44 210 2.6 7.0 0.00 0.02 0.00 67 1009.5
20260510084521 44 272 2.6 5.2 0.00 0.02 0.00 66 1009.4
20260510083517 45 250 3.5 7.0 0.00 0.02 0.00 65 1009.3
20260510082526 45 238 3.5 4.3 0.00 0.02 0.00 63 1009.3
20260510081540 46 225 2.6 6.1 0.00 0.02 0.00 60 1009.2
20260510080529 46 275 4.3 7.8 0.00 0.02 0.00 59 1009.2
20260510075543 46 259 4.3 13.0 0.00 0.02 0.00 59 1009.0
20260510074518 47 260 7.8 13.0 0.00 0.02 0.00 60 1009.0
20260510073526 47 280 6.1 11.3 0.00 0.02 0.00 62 1008.8
20260510072521 47 237 2.6 4.3 0.00 0.02 0.00 63 1008.6
20260510071533 47 261 6.1 8.7 0.00 0.02 0.00 66 1008.6
20260510070526 47 262 3.5 6.1 0.00 0.02 0.00 70 1008.5
20260510065519 47 230 4.3 7.0 0.00 0.02 0.00 71 1008.3
20260510064529 47 226 3.5 7.0 0.00 0.02 0.00 72 1008.4
20260510063522 47 225 3.5 7.0 0.00 0.02 0.00 72 1008.2
20260510062516 48 238 2.6 3.5 0.00 0.02 0.00 72 1008.0
20260510061526 48 219 2.6 3.5 0.00 0.02 0.00 73 1007.9
20260510060519 49 238 2.6 3.5 0.00 0.02 0.00 74 1007.8
20260510055531 49 211 2.6 4.3 0.00 0.02 0.00 76 1007.7
20260510054521 49 223 3.5 6.1 0.00 0.02 0.00 79 1007.7
20260510053539 49 235 2.6 6.1 0.00 0.02 0.00 80 1007.4
20260510052528 50 243 3.5 5.2 0.00 0.02 0.00 82 1007.5
20260510051523 50 238 2.6 3.5 0.00 0.02 0.00 82 1007.4
20260510050530 50 243 3.5 6.1 0.00 0.02 0.00 83 1007.3
20260510045524 50 225 2.6 6.1 0.00 0.02 0.00 84 1007.0
20260510044518 50 229 3.5 4.3 0.00 0.02 0.00 87 1007.0
20260510043528 51 223 2.6 6.1 0.00 0.02 0.00 88 1006.8
20260510042524 51 219 4.3 7.0 0.00 0.02 0.00 89 1006.8
20260510041518 50 220 2.6 6.1 0.00 0.02 0.00 88 1006.7
20260510040530 50 230 1.7 3.5 0.00 0.02 0.00 88 1006.7
20260510035522 51 227 2.6 3.5 0.00 0.02 0.02 89 1006.6
20260510034516 51 243 3.5 7.0 0.00 0.02 0.02 88 1006.5
20260510033526 51 235 2.6 5.2 0.00 0.02 0.02 88 1006.2
20260510032542 51 231 4.3 7.0 0.00 0.02 0.02 88 1006.3
20260510031530 51 219 3.5 5.2 0.00 0.02 0.02 87 1006.0
20260510030525 51 214 3.5 4.3 0.00 0.02 0.02 87 1005.8
20260510025537 51 225 2.6 3.5 0.00 0.02 0.02 86 1005.9
20260510024526 52 211 3.5 5.2 0.00 0.02 0.02 86 1005.9
20260510023533 52 225 2.6 5.2 0.00 0.02 0.02 85 1005.7
20260510022526 52 231 2.6 3.5 0.00 0.02 0.02 85 1005.7
20260510021602 53 237 3.5 5.2 0.00 0.02 0.02 85 1005.6
20260510020528 53 239 4.3 7.0 0.00 0.02 0.02 86 1005.8
20260510015525 53 231 3.5 6.1 0.00 0.02 0.02 86 1005.7
20260510014518 54 199 2.6 5.2 0.00 0.02 0.02 86 1005.5
20260510013526 54 209 6.1 9.6 0.00 0.02 0.02 86 1005.4
20260510012521 54 189 6.1 8.7 0.00 0.02 0.02 86 1005.2
20260510011529 54 220 7.0 9.6 0.00 0.02 0.02 83 1004.9
20260510010525 55 206 6.1 9.6 0.00 0.02 0.02 82 1005.0
20260510005518 55 210 5.2 8.7 0.00 0.02 0.02 83 1004.7
20260510004527 55 176 4.3 8.7 0.01 0.02 0.02 82 1004.4
20260510003522 55 177 0.9 3.5 0.02 0.02 0.02 81 1004.4
20260510002530 55 156 0.9 1.7 0.02 0.02 0.02 80 1004.2
20260510001526 56 189 3.5 5.2 0.02 0.02 0.02 78 1004.0
20260510000518 56 190 5.2 9.6 0.02 0.02 0.02 76 1004.0
20260509235528 56 207 9.6 14.8 0.02 0.02 0.02 73 1004.1
20260509234521 57 228 3.5 7.0 0.01 0.01 0.01 70 1004.0
20260509233552 59 180 5.2 7.8 0.00 0.00 0.00 65 1003.8
20260509232525 59 160 5.2 8.7 0.00 0.00 0.00 64 1003.7
20260509231540 59 158 5.2 8.7 0.00 0.00 0.00 63 1003.8
20260509230526 59 182 4.3 7.0 0.00 0.00 0.00 63 1003.9
20260509225521 59 172 4.3 7.0 0.00 0.00 0.00 63 1004.0
20260509224531 59 157 5.2 9.6 0.00 0.00 0.00 62 1004.0
20260509223526 59 135 5.2 8.7 0.00 0.00 0.00 62 1004.1
20260509222519 59 153 4.3 7.8 0.00 0.00 0.00 63 1004.3
20260509221529 59 149 5.2 7.0 0.00 0.00 0.00 63 1004.6
20260509220525 59 180 7.0 9.6 0.00 0.00 0.00 62 1005.1
20260509215519 59 172 6.1 9.6 0.00 0.00 0.00 62 1004.8
20260509214529 59 161 7.0 9.6 0.00 0.00 0.00 62 1004.8
20260509213523 60 180 7.0 9.6 0.00 0.00 0.00 62 1004.8
20260509212532 60 183 6.1 7.8 0.00 0.00 0.00 61 1004.8
20260509211525 60 162 6.1 9.6 0.00 0.00 0.00 61 1004.7
20260509210520 60 180 7.0 12.2 0.00 0.00 0.00 60 1004.7
20260509205525 60 182 6.1 9.6 0.00 0.00 0.00 60 1004.6
20260509204520 60 199 7.0 9.6 0.00 0.00 0.00 60 1004.9
20260509203528 61 195 9.6 13.0 0.00 0.00 0.00 58 1004.7
20260509202524 61 196 9.6 13.0 0.00 0.00 0.00 57 1004.6
20260509201532 61 185 7.8 12.2 0.00 0.00 0.00 56 1004.7
20260509200525 62 197 8.7 13.0 0.00 0.00 0.00 54 1005.0
20260509195519 64 194 12.2 18.2 0.00 0.00 0.00 50 1004.9
20260509194527 63 167 10.4 16.5 0.00 0.00 0.00 51 1005.0
20260509193523 65 184 11.3 16.5 0.00 0.00 0.00 46 1005.1
20260509192531 64 194 9.6 13.0 0.00 0.00 0.00 45 1005.3
20260509191524 64 185 9.6 13.0 0.00 0.00 0.00 43 1005.3
20260509190518 65 197 10.4 14.8 0.00 0.00 0.00 42 1005.4
20260509185528 65 194 12.2 15.6 0.00 0.00 0.00 41 1005.5
20260509184521 65 171 10.4 18.2 0.00 0.00 0.00 41 1005.6
20260509183516 65 151 10.4 14.8 0.00 0.00 0.00 40 1005.7
20260509182528 65 176 12.2 20.0 0.00 0.00 0.00 37 1005.8
20260509181542 66 178 7.8 14.8 0.00 0.00 0.00 34 1005.9
20260509180518 63 190 9.6 15.6 0.00 0.00 0.00 33 1005.9
20260509175527 65 146 7.0 13.9 0.00 0.00 0.00 31 1006.0
20260509174522 65 192 9.6 14.8 0.00 0.00 0.00 31 1006.1
20260509173517 66 190 9.6 17.4 0.00 0.00 0.00 30 1006.2
20260509172527 66 177 7.0 12.2 0.00 0.00 0.00 33 1006.3
20260509171522 65 144 9.6 14.8 0.00 0.00 0.00 32 1006.5
20260509170519 64 163 10.4 13.9 0.00 0.00 0.00 31 1006.8
20260509165527 65 153 7.8 13.0 0.00 0.00 0.00 33 1006.8
20260509164522 64 176 7.0 13.0 0.00 0.00 0.00 35 1006.9
20260509163516 64 176 9.6 14.8 0.00 0.00 0.00 33 1007.0
20260509162545 64 177 8.7 14.8 0.00 0.00 0.00 33 1007.1
20260509161520 64 177 9.6 14.8 0.00 0.00 0.00 35 1007.1
20260509160532 63 201 9.6 14.8 0.00 0.00 0.00 39 1007.3
20260509155524 63 166 7.8 13.0 0.00 0.00 0.00 39 1007.5
20260509154539 63 185 9.6 13.0 0.00 0.00 0.00 39 1007.7
20260509153528 63 178 9.6 13.0 0.00 0.00 0.00 37 1007.8
20260509152519 63 173 7.8 16.5 0.00 0.00 0.00 41 1007.8
20260509151529 62 165 7.8 11.3 0.00 0.00 0.00 41 1008.0
20260509150525 61 158 8.7 11.3 0.00 0.00 0.00 42 1008.2
20260509145532 61 178 7.8 11.3 0.00 0.00 0.00 42 1008.3
20260509144546 61 172 7.0 12.2 0.00 0.00 0.00 43 1008.3
20260509143601 61 204 8.7 13.0 0.00 0.00 0.00 43 1008.5
20260509142531 60 175 6.1 10.4 0.00 0.00 0.00 44 1008.6
20260509141523 60 161 5.2 10.4 0.00 0.00 0.00 45 1008.5
20260509140531 59 156 6.1 10.4 0.00 0.00 0.00 46 1008.7
20260509135526 58 121 6.1 8.7 0.00 0.00 0.00 47 1008.9
20260509134521 58 120 5.2 7.0 0.00 0.00 0.00 47 1008.9
20260509133530 58 171 5.2 8.7 0.00 0.00 0.00 50 1008.9
20260509132526 56 139 4.3 7.0 0.00 0.00 0.00 51 1009.0